Weather History for KHYX - September, 2012

Change the Weather History Date:

Sunday, September 9, 2012

  Actual Average (KMBS) Record (KMBS)
Temperature  
Mean Temperature 58 °F 64 °F  
Max Temperature 69 °F 75 °F 89 °F (2002)
Min Temperature 46 °F 53 °F 47 °F (1998)
Degree Days  
Heating Degree Days 8    
Month to date heating degree days  
Since 1 July heating degree days  
Cooling Degree Days 0    
Month to date cooling degree days  
Year to date cooling degree days  
Growing Degree Days 8 (Base 50)    
Moisture  
Dew Point 48 °F    
Average Humidity 74    
Maximum Humidity 100    
Minimum Humidity 40    
Precipitation  
Precipitation 0.00 in 0.14 in 0.96 in (2001)
Month to date precipitation 1.13  
Year to date precipitation 21.65  
Snow  
Snow 0.00 in - - ()
Month to date snowfall  
Since 1 July snowfall  
Since 1 September snowfall  
Snow Depth -    
Sea Level Pressure  
Sea Level Pressure 29.97 in    
Wind  
Wind Speed 2 mph (North)    
Max Wind Speed 12 mph    
Max Gust Speed -    
Visibility 10 miles    
Events      
T = Trace of Precipitation, MM = Missing Value Source: NWS Daily Summary

Daily Weather History Graph

Daily Weather History Graph

Search for Another Location

Airport or City:

Trip Planner

Search our weather history database for the weather conditions in past years. The results will help you decide how hot, cold, wet, or windy it might be!

Date:

Astronomy

Sep. 09, 2012 Rise Set
Actual Time 7:08 AM EDT 7:55 PM EDT
Civil Twilight 6:39 AM EDT 8:24 PM EDT
Nautical Twilight 6:05 AM EDT 8:58 PM EDT
Astronomical Twilight 5:29 AM EDT 9:34 PM EDT
Moon 12:29 AM EDT (9/9) 3:47 PM EDT (9/9)
Length of Visible Light 13h 44m
Length of Day
12h 46m
Last Quarter, 39% of the Moon is Illuminated
Sep 9
Last Quarter
Sep 15
New
Sep 22
First Quarter
Sep 29
Full
Oct 8
Last Quarter

Hourly Weather History & Observations

Time (EDT) Temp. Dew Point Humidity Pressure Visibility Wind Dir Wind Speed Gust Speed Precip Events Conditions
12:12 AM 53.6 °F 50.0 °F 88% 29.84 in 10.0 mi Calm Calm - N/A   Clear
12:37 AM 51.8 °F 50.0 °F 94% 29.85 in 10.0 mi Calm Calm - N/A   Clear
12:53 AM 51.8 °F 50.0 °F 94% 29.85 in 10.0 mi Calm Calm - N/A   Clear
1:13 AM 50.0 °F 50.0 °F 100% 29.85 in 10.0 mi Calm Calm - N/A   Clear
1:33 AM 51.8 °F 50.0 °F 94% 29.84 in 10.0 mi Calm Calm - N/A   Clear
1:53 AM 50.0 °F 50.0 °F 100% 29.84 in 10.0 mi Calm Calm - N/A   Clear
2:13 AM 50.0 °F 50.0 °F 100% 29.85 in 10.0 mi Calm Calm - N/A   Clear
2:33 AM 50.0 °F 50.0 °F 100% 29.84 in 10.0 mi Calm Calm - N/A   Clear
2:53 AM 50.0 °F 50.0 °F 100% 29.84 in 10.0 mi Calm Calm - N/A   Clear
3:13 AM 50.0 °F 50.0 °F 100% 29.84 in 10.0 mi Calm Calm - N/A   Clear
3:33 AM 50.0 °F 50.0 °F 100% 29.85 in 10.0 mi Calm Calm - N/A   Clear
3:54 AM 50.0 °F 50.0 °F 100% 29.85 in 10.0 mi Calm Calm - N/A   Clear
4:14 AM 50.0 °F 50.0 °F 100% 29.85 in 10.0 mi Calm Calm - N/A   Clear
4:34 AM 50.0 °F 48.2 °F 94% 29.86 in 10.0 mi Calm Calm - N/A   Clear
4:54 AM 50.0 °F 50.0 °F 100% 29.87 in 10.0 mi Calm Calm - N/A   Clear
5:14 AM 46.4 °F 46.4 °F 100% 29.88 in 7.0 mi Calm Calm - N/A   Clear
5:34 AM 46.4 °F 46.4 °F 100% 29.89 in 7.0 mi Calm Calm - N/A   Clear
5:54 AM 46.4 °F 46.4 °F 100% 29.89 in 5.0 mi Calm Calm - N/A   Clear
6:14 AM 48.2 °F 48.2 °F 100% 29.89 in 10.0 mi Calm Calm - N/A   Clear
6:34 AM 46.4 °F 46.4 °F 100% 29.90 in 7.0 mi Calm Calm - N/A   Clear
6:54 AM 46.4 °F 46.4 °F 100% 29.90 in 10.0 mi Calm Calm - N/A   Clear
7:10 AM 46.4 °F 46.4 °F 100% 29.91 in 5.0 mi Calm Calm - N/A   Clear
7:50 AM 48.2 °F 48.2 °F 100% 29.93 in 10.0 mi Calm Calm - N/A   Clear
8:10 AM 51.8 °F 51.8 °F 100% 29.93 in 10.0 mi Calm Calm - N/A   Clear
8:30 AM 53.6 °F 53.6 °F 100% 29.94 in 10.0 mi Calm Calm - N/A   Clear
8:50 AM 55.4 °F 53.6 °F 94% 29.95 in 10.0 mi Calm Calm - N/A   Clear
9:10 AM 59.0 °F 53.6 °F 82% 29.95 in 10.0 mi Calm Calm - N/A   Clear
9:30 AM 59.0 °F 53.6 °F 82% 29.96 in 10.0 mi Calm Calm - N/A   Clear
9:50 AM 60.8 °F 53.6 °F 77% 29.96 in 10.0 mi NNW 4.6 mph - N/A   Clear
10:10 AM 60.8 °F 53.6 °F 77% 29.97 in 10.0 mi NNW 6.9 mph - N/A   Clear
10:31 AM 62.6 °F 53.6 °F 72% 29.98 in 10.0 mi NNW 5.8 mph - N/A   Clear
10:51 AM 62.6 °F 51.8 °F 68% 29.99 in 10.0 mi NNW 9.2 mph - N/A   Clear
11:31 AM 64.4 °F 50.0 °F 59% 29.99 in 10.0 mi NW 5.8 mph - N/A   Clear
12:11 PM 64.4 °F 44.6 °F 49% 29.99 in 10.0 mi NNW 8.1 mph - N/A   Scattered Clouds
12:31 PM 64.4 °F 44.6 °F 49% 30.00 in 10.0 mi North 3.5 mph - N/A   Scattered Clouds
12:51 PM 64.4 °F 46.4 °F 52% 30.00 in 10.0 mi North 4.6 mph - N/A   Clear
1:11 PM 66.2 °F 46.4 °F 49% 30.00 in 10.0 mi North 9.2 mph - N/A   Scattered Clouds
1:32 PM 68.0 °F 46.4 °F 46% 30.00 in 10.0 mi North 6.9 mph - N/A   Scattered Clouds
1:52 PM 66.2 °F 46.4 °F 49% 30.01 in 10.0 mi NNE 6.9 mph - N/A   Mostly Cloudy
2:12 PM 66.2 °F 44.6 °F 46% 30.01 in 10.0 mi NNE 9.2 mph - N/A   Scattered Clouds
2:32 PM 68.0 °F 44.6 °F 43% 30.01 in 10.0 mi North 8.1 mph - N/A   Scattered Clouds
2:52 PM 68.0 °F 44.6 °F 43% 30.01 in 10.0 mi NNW 10.4 mph - N/A   Scattered Clouds
3:12 PM 66.2 °F 42.8 °F 43% 30.01 in 10.0 mi North 6.9 mph - N/A   Mostly Cloudy
3:32 PM 69.8 °F 44.6 °F 40% 30.01 in 10.0 mi NNE 11.5 mph - N/A   Mostly Cloudy
3:52 PM 68.0 °F 44.6 °F 43% 30.01 in 10.0 mi North 4.6 mph - N/A   Mostly Cloudy
4:12 PM 66.2 °F 42.8 °F 43% 30.01 in 10.0 mi NNE 5.8 mph - N/A   Scattered Clouds
4:33 PM 68.0 °F 42.8 °F 40% 30.01 in 10.0 mi NNW 5.8 mph - N/A   Clear
5:13 PM 68.0 °F 42.8 °F 40% 30.02 in 10.0 mi North 5.8 mph - N/A   Scattered Clouds
5:33 PM 66.2 °F 42.8 °F 43% 30.03 in 10.0 mi North 5.8 mph - N/A   Mostly Cloudy
5:53 PM 68.0 °F 42.8 °F 40% 30.03 in 10.0 mi North 3.5 mph - N/A   Scattered Clouds
6:13 PM 64.4 °F 44.6 °F 49% 30.04 in 10.0 mi North 3.5 mph - N/A   Scattered Clouds
6:33 PM 66.2 °F 44.6 °F 46% 30.04 in 10.0 mi Calm Calm - N/A   Scattered Clouds
6:53 PM 64.4 °F 44.6 °F 49% 30.04 in 10.0 mi Calm Calm - N/A   Scattered Clouds
7:13 PM 64.4 °F 44.6 °F 49% 30.04 in 10.0 mi Calm Calm - N/A   Scattered Clouds
7:34 PM 62.6 °F 46.4 °F 55% 30.04 in 10.0 mi Calm Calm - N/A   Scattered Clouds
7:54 PM 60.8 °F 46.4 °F 59% 30.04 in 10.0 mi NNW 3.5 mph - N/A   Scattered Clouds
8:14 PM 60.8 °F 46.4 °F 59% 30.05 in 10.0 mi NNW 4.6 mph - N/A   Scattered Clouds
8:34 PM 59.0 °F 46.4 °F 63% 30.06 in 10.0 mi NNW 3.5 mph - N/A   Clear
8:54 PM 59.0 °F 48.2 °F 67% 30.07 in 10.0 mi North 3.5 mph - N/A   Mostly Cloudy
9:14 PM 59.0 °F 48.2 °F 67% 30.07 in 10.0 mi North 3.5 mph - N/A   Scattered Clouds
9:34 PM 55.4 °F 50.0 °F 82% 30.08 in 10.0 mi Calm Calm - N/A   Clear
9:54 PM 55.4 °F 48.2 °F 77% 30.09 in 10.0 mi Calm Calm - N/A   Clear
10:14 PM 55.4 °F 48.2 °F 77% 30.09 in 10.0 mi Calm Calm - N/A   Mostly Cloudy
10:30 PM 57.2 °F 46.4 °F 67% 30.09 in 10.0 mi Calm Calm - N/A   Scattered Clouds
10:50 PM 55.4 °F 46.4 °F 72% 30.09 in 10.0 mi Calm Calm - N/A   Scattered Clouds
11:10 PM 53.6 °F 46.4 °F 77% 30.10 in 10.0 mi Calm Calm - N/A   Clear
11:30 PM 51.8 °F 48.2 °F 88% 30.10 in 10.0 mi Calm Calm - N/A   Clear
11:50 PM 51.8 °F 48.2 °F 88% 30.11 in 10.0 mi Calm Calm - N/A   Clear